CW8078 Weather Reports


time (UTC)temp
C
wind
direction
speed
KPH
gust
KPH
rain 1hr
cm
rain 24hr
cm
rain mn
cm
humidity
%
barometer
mb
20260901011802 30 175 0.0 0.0 0.00 0.00 0.00 62 1011.3
20260901011303 30 144 0.0 0.0 0.00 0.00 0.00 62 1011.2
20260901010802 30 144 0.0 0.0 0.00 0.00 0.00 62 1011.2
20260901010303 30 144 0.0 0.0 0.00 0.00 0.00 61 1011.2
20260901004802 31 144 0.0 0.0 0.00 0.00 0.00 59 1011.1
20260901004302 31 144 0.0 0.0 0.00 0.00 0.00 59 1011.0
20260901003303 31 154 0.0 0.0 0.00 0.00 0.00 60 1011.0
20260901001802 30 168 0.0 0.0 0.00 0.00 0.00 65 1011.0
20260901001302 30 142 0.0 0.0 0.00 0.00 0.00 69 1011.1
20260901000803 30 142 0.0 0.0 0.00 0.00 0.00 70 1011.1
20260901000303 31 142 0.0 0.0 0.00 0.00 0.00 66 1011.0
20260831234803 31 142 0.0 0.0 0.00 0.00 0.00 65 1011.0
20260831234303 31 142 0.0 0.0 0.00 0.00 0.00 64 1011.0
20260831233802 31 142 0.0 0.0 0.00 0.00 0.00 63 1011.0
20260831231802 32 142 0.0 0.0 0.00 0.00 0.00 60 1011.0
20260831231303 32 142 0.0 0.0 0.00 0.00 0.00 57 1011.0
20260831230302 32 142 0.0 0.0 0.00 0.00 0.00 57 1011.0
20260831224803 33 142 0.0 0.0 0.00 0.00 0.00 55 1010.9
20260831223803 33 142 0.0 0.0 0.00 0.00 0.00 55 1010.9
20260831223302 34 142 0.0 0.0 0.00 0.00 0.00 55 1010.9
20260831221802 35 142 0.0 0.0 0.00 0.00 0.00 53 1011.0
20260831221303 35 142 0.0 0.0 0.00 0.00 0.00 45 1011.0
20260831220802 35 175 0.0 0.0 0.00 0.00 0.00 49 1011.0
20260831220302 35 175 0.0 0.0 0.00 0.00 0.00 46 1011.1
20260831214802 36 175 0.0 0.0 0.00 0.00 0.00 46 1011.1
20260831214303 36 122 0.0 0.0 0.00 0.00 0.00 41 1011.1
20260831213303 36 167 0.0 0.0 0.00 0.00 0.00 42 1011.0
20260831211803 36 136 0.0 0.0 0.00 0.00 0.00 43 1011.1
20260831210802 36 167 0.0 0.0 0.00 0.00 0.00 43 1011.1
20260831210302 36 149 0.0 0.0 0.00 0.00 0.00 43 1011.1
20260831204803 36 149 0.0 1.6 0.00 0.00 0.00 44 1011.2
20260831204303 36 181 0.0 0.0 0.00 0.00 0.00 44 1011.3
20260831203803 36 117 0.0 0.0 0.00 0.00 0.00 44 1011.3
20260831203303 36 165 0.0 0.0 0.00 0.00 0.00 43 1011.4
20260831201803 36 227 0.0 0.0 0.00 0.00 0.00 43 1011.4
20260831201303 36 227 0.0 0.0 0.00 0.00 0.00 43 1011.5
20260831200803 36 167 0.0 0.0 0.00 0.00 0.00 43 1011.6
20260831194803 36 171 0.0 0.0 0.00 0.00 0.00 43 1011.8
20260831193802 37 226 0.0 0.0 0.00 0.00 0.00 41 1011.9
20260831193302 37 225 0.0 0.0 0.00 0.00 0.00 42 1011.9
20260831191802 37 162 0.0 0.0 0.00 0.00 0.00 41 1012.1
20260831191303 37 127 0.0 0.0 0.00 0.00 0.00 43 1012.2
20260831190803 37 225 0.0 0.0 0.00 0.00 0.00 42 1012.2
20260831190302 36 238 0.0 0.0 0.00 0.00 0.00 45 1012.2
20260831184803 37 141 0.0 0.0 0.00 0.00 0.00 45 1012.3
20260831184303 37 125 0.0 0.0 0.00 0.00 0.00 41 1012.4
20260831183803 36 285 0.0 0.0 0.00 0.00 0.00 45 1012.4
20260831183303 37 184 0.0 0.0 0.00 0.00 0.00 44 1012.4
20260831181803 36 179 0.0 0.0 0.00 0.00 0.00 44 1012.5
20260831180802 36 188 0.0 0.0 0.00 0.00 0.00 42 1012.6
20260831180302 36 179 0.0 0.0 0.00 0.00 0.00 45 1012.7
20260831174803 36 239 0.0 0.0 0.00 0.00 0.00 47 1013.0
20260831174302 36 229 0.0 0.0 0.00 0.00 0.00 44 1013.0
20260831173802 35 178 0.0 0.0 0.00 0.00 0.00 48 1013.1
20260831173302 35 178 0.0 0.0 0.00 0.00 0.00 47 1013.1
20260831171303 35 146 0.0 0.0 0.00 0.00 0.00 48 1013.3
20260831170803 34 165 0.0 0.0 0.00 0.00 0.00 53 1013.4
20260831170306 34 196 0.0 0.0 0.00 0.00 0.00 51 1013.5
20260831164803 33 294 0.0 0.0 0.00 0.00 0.00 54 1013.6
20260831164303 32 136 0.0 0.0 0.00 0.00 0.00 55 1013.7
20260831163804 32 162 0.0 0.0 0.00 0.00 0.00 54 1013.6
20260831161803 31 167 0.0 0.0 0.00 0.00 0.00 56 1013.7
20260831161302 31 201 0.0 0.0 0.00 0.00 0.00 57 1013.7
20260831160802 31 166 0.0 0.0 0.00 0.00 0.00 59 1013.8
20260831154803 30 174 0.0 0.0 0.00 0.00 0.00 62 1013.8
20260831154303 30 198 0.0 0.0 0.00 0.00 0.00 62 1013.6
20260831153803 30 178 0.0 0.0 0.00 0.00 0.00 61 1013.6
20260831153303 29 176 0.0 0.0 0.00 0.00 0.00 63 1013.6
20260831151802 28 171 0.0 0.0 0.00 0.00 0.00 65 1013.6
20260831151303 28 169 0.0 0.0 0.00 0.00 0.00 66 1013.6
20260831150802 28 169 0.0 0.0 0.00 0.00 0.00 67 1013.6
20260831150303 28 174 0.0 1.6 0.00 0.00 0.00 65 1013.6
20260831144303 27 175 0.0 0.0 0.00 0.00 0.00 68 1013.7
20260831143802 26 181 0.0 0.0 0.00 0.00 0.00 68 1013.7
20260831143303 26 188 0.0 0.0 0.00 0.00 0.00 68 1013.7
20260831141303 25 104 0.0 0.0 0.00 0.00 0.00 72 1013.7
20260831140803 25 141 0.0 0.0 0.00 0.00 0.00 72 1013.6
20260831134302 23 134 0.0 0.0 0.00 0.00 0.00 73 1013.6
20260831133803 23 156 0.0 0.0 0.00 0.00 0.00 74 1013.7
20260831133303 23 155 0.0 0.0 0.00 0.00 0.00 74 1013.7
20260831131803 22 121 0.0 0.0 0.00 0.00 0.00 75 1013.5
20260831131303 22 179 0.0 0.0 0.00 0.00 0.00 77 1013.5
20260831130802 22 155 0.0 0.0 0.00 0.00 0.00 76 1013.5
20260831130303 22 156 0.0 1.6 0.00 0.00 0.00 76 1013.4
20260831123803 21 132 0.0 0.0 0.00 0.00 0.00 81 1013.2
20260831123303 21 132 0.0 0.0 0.00 0.00 0.00 81 1013.1
20260831121802 20 161 0.0 0.0 0.00 0.00 0.00 84 1012.9
20260831121303 20 161 0.0 0.0 0.00 0.00 0.00 85 1012.9
20260831120803 20 161 0.0 0.0 0.00 0.00 0.00 86 1012.9
20260831120303 19 161 0.0 0.0 0.00 0.00 0.00 85 1012.9
20260831114803 19 161 0.0 0.0 0.00 0.00 0.00 85 1012.7
20260831114303 20 161 0.0 0.0 0.00 0.00 0.00 85 1012.7
20260831113803 20 161 0.0 0.0 0.00 0.00 0.00 85 1012.7
20260831113303 20 161 0.0 0.0 0.00 0.00 0.00 85 1012.5
20260831111803 20 161 0.0 0.0 0.00 0.00 0.00 84 1012.6
20260831111303 20 161 0.0 0.0 0.00 0.00 0.00 85 1012.6
20260831110803 20 161 0.0 0.0 0.00 0.00 0.00 85 1012.5
20260831104803 20 161 0.0 0.0 0.00 0.00 0.00 84 1012.4
20260831104303 20 161 0.0 0.0 0.00 0.00 0.00 83 1012.3
20260831103803 20 161 0.0 0.0 0.00 0.00 0.00 83 1012.2
20260831103303 20 161 0.0 0.0 0.00 0.00 0.00 82 1012.2
20260831101803 20 161 0.0 0.0 0.00 0.00 0.00 81 1012.2
20260831100803 20 161 0.0 0.0 0.00 0.00 0.00 81 1012.1
20260831100303 20 161 0.0 0.0 0.00 0.00 0.00 81 1012.1
20260831093802 21 161 0.0 0.0 0.00 0.00 0.00 81 1012.1
20260831093303 21 161 0.0 0.0 0.00 0.00 0.00 80 1012.0
20260831091803 21 5 0.0 0.0 0.00 0.00 0.00 79 1012.1
20260831091302 21 3 0.0 0.0 0.00 0.00 0.00 79 1012.1
20260831090803 21 161 0.0 0.0 0.00 0.00 0.00 79 1012.0
20260831084803 21 161 0.0 0.0 0.00 0.00 0.00 78 1012.0
20260831083802 22 42 0.0 0.0 0.00 0.00 0.00 78 1012.0
20260831083304 22 0 0.0 0.0 0.00 0.00 0.00 76 1011.9
20260831081803 22 58 0.0 0.0 0.00 0.00 0.00 75 1011.8
20260831081303 22 159 0.0 0.0 0.00 0.00 0.00 75 1011.7
20260831080803 22 161 0.0 0.0 0.00 0.00 0.00 76 1011.6
20260831080304 23 161 0.0 0.0 0.00 0.00 0.00 75 1011.6
20260831074802 23 161 0.0 0.0 0.00 0.00 0.00 72 1011.7
20260831074303 23 161 0.0 0.0 0.00 0.00 0.00 72 1011.7
20260831073803 23 161 0.0 0.0 0.00 0.00 0.00 71 1011.7
20260831073303 23 161 0.0 0.0 0.00 0.00 0.00 72 1011.7
20260831071803 24 161 0.0 0.0 0.00 0.00 0.00 70 1011.8
20260831071305 24 161 0.0 0.0 0.00 0.00 0.00 70 1011.8
20260831070803 24 161 0.0 0.0 0.00 0.00 0.00 69 1011.8
20260831064803 25 161 0.0 0.0 0.00 0.00 0.00 67 1011.9
20260831063803 25 144 0.0 0.0 0.00 0.00 0.00 67 1012.0
20260831063303 25 144 0.0 0.0 0.00 0.00 0.00 68 1012.0
20260831061803 24 151 0.0 0.0 0.00 0.00 0.00 73 1012.1
20260831061303 24 120 0.0 0.0 0.00 0.00 0.00 69 1012.2
20260831060803 25 120 0.0 0.0 0.00 0.00 0.00 70 1012.1
20260831060303 25 120 0.0 0.0 0.00 0.00 0.00 70 1012.1
20260831054803 25 120 0.0 0.0 0.00 0.00 0.00 65 1012.0
20260831054303 25 120 0.0 0.0 0.00 0.00 0.00 67 1012.0
20260831053803 25 120 0.0 0.0 0.00 0.00 0.00 66 1012.0
20260831053303 26 120 0.0 0.0 0.00 0.00 0.00 66 1011.9
20260831051803 26 120 0.0 0.0 0.00 0.00 0.00 65 1011.7
20260831051303 26 120 0.0 0.0 0.00 0.00 0.00 66 1011.7
20260831050803 26 120 0.0 0.0 0.00 0.00 0.00 67 1011.6
20260831050303 26 140 0.0 0.0 0.00 0.00 0.00 67 1011.6
20260831044803 25 173 0.0 0.0 0.00 0.00 0.00 69 1011.5
20260831043803 25 173 0.0 0.0 0.00 0.00 0.00 69 1011.5
20260831041804 26 140 0.0 0.0 0.00 0.00 0.00 69 1011.6
20260831041303 26 123 0.0 0.0 0.00 0.00 0.00 69 1011.5
20260831040803 26 103 0.0 0.0 0.00 0.00 0.00 69 1011.5
20260831040303 26 129 0.0 0.0 0.00 0.00 0.00 69 1011.5
20260831034803 26 141 0.0 0.0 0.00 0.00 0.00 69 1011.5
20260831034303 26 155 0.0 0.0 0.00 0.00 0.00 69 1011.4
20260831033303 26 143 0.0 0.0 0.00 0.00 0.00 68 1011.4
20260831031303 27 140 0.0 0.0 0.00 0.00 0.00 68 1011.4
20260831030803 27 153 0.0 0.0 0.00 0.00 0.00 68 1011.3
20260831030303 27 153 0.0 0.0 0.00 0.00 0.00 68 1011.3
20260831024803 27 152 0.0 0.0 0.00 0.00 0.00 68 1011.2
20260831024303 27 144 0.0 0.0 0.00 0.00 0.00 68 1011.1
20260831023803 27 149 0.0 0.0 0.00 0.00 0.00 68 1011.1
20260831023303 27 152 0.0 0.0 0.00 0.00 0.00 67 1011.0
20260831021803 27 144 0.0 1.6 0.00 0.00 0.00 67 1011.0
20260831021303 28 144 0.0 0.0 0.00 0.00 0.00 67 1010.9
20260831020303 28 144 0.0 0.0 0.00 0.00 0.00 67 1010.8
20260831014803 28 143 0.0 0.0 0.00 0.00 0.00 67 1010.6
20260831014303 28 146 0.0 0.0 0.00 0.00 0.00 67 1010.5
20260831013803 28 146 0.0 0.0 0.00 0.00 0.00 67 1010.3